Portsmouth, NH

1:17 PM EDT on September 21, 2017 (GMT -0400)
Pease International Tradeport

Weather History for KPSM - December, 2013

Change the Weather History Date:

Thursday, December 19, 2013

  Actual Average Record
Temperature  
Mean Temperature 33 °F -  
Max Temperature 39 °F 37 °F 51 °F (1990)
Min Temperature 27 °F 22 °F -2 °F (1979)
Degree Days  
Heating Degree Days 32    
Moisture  
Dew Point 20 °F    
Average Humidity 61    
Maximum Humidity 70    
Minimum Humidity 44    
Precipitation  
Precipitation 0.00 in - - ()
Snow  
Snow 0.00 in - - ()
Snow Depth 13.00 in    
Sea Level Pressure  
Sea Level Pressure 30.03 in    
Wind  
Wind Speed 8 mph (SW)    
Max Wind Speed 13 mph    
Max Gust Speed 18 mph    
Visibility 10 miles    
Events      
Averages and records for this station are not official NWS values.
T = Trace of Precipitation, MM = Missing Value Source: NWS Daily Summary

Daily Weather History Graph

Daily Weather History Graph

Search for Another Location

Airport or City:

Trip Planner

Search our weather history database for the weather conditions in past years. The results will help you decide how hot, cold, wet, or windy it might be!

Date:

Astronomy

Dec. 19, 2013 Rise Set
Actual Time 7:10 AM EST 4:10 PM EST
Civil Twilight 6:38 AM EST 4:42 PM EST
Nautical Twilight 6:02 AM EST 5:18 PM EST
Astronomical Twilight 5:27 AM EST 5:53 PM EST
Moon 6:36 PM EST (12/19) 8:24 AM EST (12/19)
Length of Visible Light 10h 04m
Length of Day
8h 59m
Waning Gibbous, 95% of the Moon is Illuminated
Dec 19
Waning Gibbous
Dec 25
Last Quarter
Jan 1
New
Jan 7
First Quarter
Jan 15
Full

Hourly Weather History & Observations

Time (EST) Temp. Windchill Dew Point Humidity Pressure Visibility Wind Dir Wind Speed Gust Speed Precip Events Conditions
12:58 AM 27.1 °F 18.9 °F 17.8 °F 68% 30.03 in 10.0 mi SW 8.1 mph - N/A   Overcast
1:58 AM 27.7 °F 17.1 °F 18.1 °F 67% 30.05 in 10.0 mi SW 12.7 mph 18.4 mph N/A   Overcast
2:58 AM 28.6 °F 18.7 °F 19.0 °F 67% 30.06 in 10.0 mi SW 11.5 mph - N/A   Overcast
3:58 AM 28.2 °F 22.0 °F 19.0 °F 68% 30.05 in 10.0 mi SW 5.8 mph - N/A   Overcast
4:58 AM 28.2 °F 20.2 °F 19.2 °F 69% 30.05 in 10.0 mi SW 8.1 mph - N/A   Overcast
5:58 AM 28.4 °F 22.2 °F 19.6 °F 70% 30.06 in 10.0 mi WSW 5.8 mph - N/A   Overcast
6:58 AM 28.9 °F 21.1 °F 19.8 °F 69% 30.05 in 10.0 mi SW 8.1 mph - N/A   Overcast
7:58 AM 29.3 °F 24.3 °F 19.9 °F 68% 30.04 in 10.0 mi South 4.6 mph - N/A   Overcast
8:58 AM 30.0 °F 22.4 °F 20.1 °F 67% 30.03 in 10.0 mi South 8.1 mph - N/A   Overcast
9:58 AM 30.6 °F 21.2 °F 20.1 °F 65% 30.02 in 10.0 mi SSW 11.5 mph - N/A   Overcast
10:06 AM 32.0 °F 24.8 °F 21.2 °F 64% 30.00 in 10.0 mi SW 8.1 mph - N/A   Overcast
10:57 AM 31.6 °F 23.1 °F 19.4 °F 61% 30.00 in 10.0 mi SW 10.4 mph - N/A   Overcast
11:58 AM 35.1 °F 28.6 °F 18.9 °F 52% 29.98 in 10.0 mi WSW 8.1 mph - N/A   Mostly Cloudy
12:58 PM 37.2 °F 30.6 °F 18.9 °F 48% 29.96 in 10.0 mi SW 9.2 mph - N/A   Partly Cloudy
1:58 PM 38.8 °F 33.2 °F 19.0 °F 45% 29.95 in 10.0 mi SW 8.1 mph - N/A   Partly Cloudy
2:58 PM 39.6 °F 34.0 °F 19.2 °F 44% 29.95 in 10.0 mi WSW 8.1 mph - N/A   Scattered Clouds
3:58 PM 37.0 °F 31.6 °F 19.8 °F 50% 29.97 in 10.0 mi WSW 6.9 mph - N/A   Mostly Cloudy
4:58 PM 34.9 °F 29.9 °F 19.4 °F 53% 29.99 in 10.0 mi SSW 5.8 mph - N/A   Mostly Cloudy
5:58 PM 33.8 °F - 19.8 °F 56% 30.01 in 10.0 mi South 2.3 mph - N/A   Mostly Cloudy
6:58 PM 31.5 °F 26.8 °F 20.3 °F 63% 30.03 in 10.0 mi SSW 4.6 mph - N/A   Mostly Cloudy
7:58 PM 32.0 °F 27.5 °F 19.9 °F 61% 30.05 in 10.0 mi WSW 4.6 mph - N/A   Mostly Cloudy
8:58 PM 31.8 °F 27.3 °F 20.7 °F 63% 30.08 in 10.0 mi WSW 4.6 mph - N/A   Mostly Cloudy
9:58 PM 32.2 °F - 21.4 °F 64% 30.09 in 10.0 mi WSW 1.2 mph - N/A   Overcast
10:58 PM 32.4 °F 27.9 °F 21.6 °F 64% 30.10 in 10.0 mi SSW 4.6 mph - N/A   Overcast
11:58 PM 33.1 °F 28.7 °F 22.1 °F 64% 30.10 in 10.0 mi SSW 4.6 mph - N/A   Overcast